Regional Weather Roundup
Issued by NWS

Home | Current Version | Previous Version | Text Only | Print | Product List | Glossary On
Versions: 1 2 3 4 5 6 7 8 9 10 11 12 13 14 15 16 17 18 19 20 21 22 23 24 25 26 27 28 29 30 31 32 33 34 35 36 37 38 39 40 41 42 43 44 45 46 47 48 49 50
000
ASUS42 KFFC 281110
RWRGA
WEATHER ROUNDUP FOR GEORGIA
NATIONAL WEATHER SERVICE PEACHTREE CITY GA
700 AM EDT TUE MAR 28 2017

NOTE: "FAIR" INDICATES FEW OR NO CLOUDS BELOW 12,000 FEET WITH NO
SIGNIFICANT WEATHER AND/OR OBSTRUCTIONS TO VISIBILITY.

* = USE WITH CAUTION. THE STATIONS MARKED WITH AN ASTERISK MAY NOT
REPORT WEATHER SUCH AS PRECIPITATION, FOG, OR THUNDER AND ARE NOT
QUALITY CONTROLLED BY NWS.

THE REMARK "TC" DENOTES TEMPERATURE READING IN DEGREES CELSIUS.

GAZ001>058-281200-
NORTH GEORGIA

CITY           SKY/WX    TMP DP  RH WIND       PRES   REMARKS
ATLANTA        CLOUDY    62  61  96 SW5       29.96F
ATHENS         CLOUDY    61  60  97 S3        29.95F
CHAMBLEE       CLOUDY    61  59  93 S5        29.95F
PEACHTREE CITY CLOUDY    63  62  97 CALM      29.99S
ROME           CLOUDY    60  58  92 SE3       29.94R
WEST ATLANTA   CLOUDY    62  59  90 SW6       29.95F
GAINESVILLE    CLEAR     56  56 100 CALM      29.98R FOG
CARTERSVILLE   CLOUDY    60  59  96 CALM      29.96R


CITY           SKY/WX    TMP DP  RH WIND       PRES   REMARKS
DALTON*        CLOUDY    55  55 100 CALM      29.96R
LAWRENCEVILLE* MOCLDY    61  59  94 SW5       29.97
MARIETTA       CLOUDY    62  60  95 S3        29.95F
KENNESAW*      CLOUDY    61  59  94 CALM      29.95
CANTON*        CLOUDY    57  55  94 CALM      29.97F FOG
$$

GAZ059>098-102>109-281200-
CENTRAL GEORGIA

CITY           SKY/WX    TMP DP  RH WIND       PRES   REMARKS
AUGUSTA-BUSH   MOCLDY    65  57  75 S7        29.96R
AUGUSTA-DANIEL PTCLDY    66  55  67 S6        29.97S
COLUMBUS       CLOUDY    67  61  81 SW3       30.00R
MACON          CLOUDY    64  58  80 SW7       29.99R
ROBINS AFB     CLOUDY    65  58  79 SW6       29.99R


CITY           SKY/WX    TMP DP  RH WIND       PRES   REMARKS
LAGRANGE*      CLOUDY    68  68  99 CALM      29.99R
SYLVANIA*      PTCLDY   N/A N/A N/A CALM      30.01S
MILLEDGEVILLE* CLOUDY    63  61  94 CALM      29.99R
$$

GAZ099>101-110>166-281200-
SOUTH GEORGIA

CITY           SKY/WX    TMP DP  RH WIND       PRES   REMARKS
SAVANNAH       PTCLDY    64  58  80 SW8       30.01S
VALDOSTA       FOG       58  58 100 S3        30.03R VSB 1/2
ALMA           MOCLDY    60  57  89 S5        30.02R
ST SIMONS      MOCLDY    65  60  84 SW5       30.03R
FT STEWART     PTCLDY    63  57  82 S3        30.00R
ALBANY         MOCLDY    62  61  96 S3        30.03S
HUNTER AFB     PTCLDY    64  63  97 CALM      30.00R
MOODY AFB      FOG       59  57  94 S6        30.02S VSB 1/2
BRUNSWICK      MOCLDY    64  61  88 SW6       30.04R


CITY           SKY/WX    TMP DP  RH WIND       PRES   REMARKS
BAINBRIDGE*    MOCLDY    63  63 100 CALM      30.02R
MOULTRIE*      CLOUDY    63  61  94 W3        30.04R
VIDALIA*       PTCLDY    63  59  88 S5        30.01S
WAYCROSS*      MOCLDY    62  61  99 SW5       30.03S
DOUGLAS*       PTCLDY    61  59  94 SW5       30.03S
$$



USA.gov is the U.S. government's official web portal to all federal, state and local government web resources and services.